Weather History for K3I2 - April, 2013

Change the Weather History Date:

Sunday, April 28, 2013

  Actual Average (KHTS) Record (KHTS)
Temperature  
Mean Temperature 62 °F 60 °F  
Max Temperature 69 °F 72 °F 91 °F (1957)
Min Temperature 55 °F 48 °F 30 °F (2004)
Degree Days  
Heating Degree Days 3 6  
Month to date heating degree days 279  
Since 1 July heating degree days 4376  
Cooling Degree Days 0 1  
Month to date cooling degree days 27  
Year to date cooling degree days 32  
Growing Degree Days 12 (Base 50)    
Moisture  
Dew Point 52 °F    
Average Humidity 69    
Maximum Humidity 94    
Minimum Humidity 52    
Precipitation  
Precipitation 0.00 in 0.12 in 1.76 in (2002)
Month to date precipitation 3.20  
Year to date precipitation 13.14  
Snow  
Snow 0.00 in - - ()
Month to date snowfall  
Since 1 September snowfall  
Snow Depth -    
Sea Level Pressure  
Sea Level Pressure 29.99 in    
Wind  
Wind Speed 5 mph (SSE)    
Max Wind Speed 9 mph    
Max Gust Speed 17 mph    
Visibility 9 miles    
Events Rain    
T = Trace of Precipitation, MM = Missing Value Source: NWS Daily Summary

Daily Weather History Graph

Daily Weather History Graph

Search for Another Location

Airport or City:

Trip Planner

Search our weather history database for the weather conditions in past years. The results will help you decide how hot, cold, wet, or windy it might be!

Date:

Astronomy

Apr. 28, 2013 Rise Set
Actual Time 6:33 AM EDT 8:18 PM EDT
Civil Twilight 6:05 AM EDT 8:46 PM EDT
Nautical Twilight 5:30 AM EDT 9:21 PM EDT
Astronomical Twilight 4:54 AM EDT 9:58 PM EDT
Moon 11:46 PM EDT (4/28) 8:50 AM EDT (4/28)
Length of Visible Light 14h 41m
Length of Day
13h 44m
Waning Gibbous, 89% of the Moon is Illuminated
Apr 28
Waning Gibbous
May 2
Last Quarter
May 9
New
May 18
First Quarter
May 25
Full

Hourly Weather History & Observations

Time (EDT) Temp. Dew Point Humidity Pressure Visibility Wind Dir Wind Speed Gust Speed Precip Events Conditions
12:15 AM 60.8 °F 48.2 °F 63% 30.14 in 10.0 mi ESE 3.5 mph - N/A   Overcast
12:35 AM 60.8 °F 48.2 °F 63% 30.14 in 10.0 mi East 3.5 mph - N/A   Scattered Clouds
12:55 AM 60.8 °F 50.0 °F 68% 30.13 in 10.0 mi East 3.5 mph - N/A   Scattered Clouds
1:15 AM 60.8 °F 50.0 °F 68% 30.12 in 10.0 mi ESE 4.6 mph - N/A   Scattered Clouds
1:35 AM 59.0 °F 50.0 °F 72% 30.11 in 10.0 mi East 4.6 mph - N/A   Clear
1:55 AM 59.0 °F 50.0 °F 72% 30.10 in 10.0 mi ESE 4.6 mph - N/A   Scattered Clouds
2:15 AM 59.0 °F 50.0 °F 72% 30.09 in 10.0 mi ESE 4.6 mph - N/A   Scattered Clouds
2:35 AM 59.0 °F 50.0 °F 72% 30.08 in 10.0 mi East 3.5 mph - N/A   Mostly Cloudy
2:55 AM 59.0 °F 50.0 °F 72% 30.07 in 10.0 mi ESE 4.6 mph - N/A   Mostly Cloudy
3:15 AM 59.0 °F 50.0 °F 72% 30.06 in 10.0 mi ESE 4.6 mph - N/A   Overcast
3:35 AM 59.0 °F 50.0 °F 72% 30.05 in 10.0 mi ESE 4.6 mph - N/A   Overcast
3:55 AM 59.0 °F 50.0 °F 72% 30.05 in 10.0 mi SE 3.5 mph - N/A   Overcast
4:15 AM 59.0 °F 50.0 °F 72% 30.05 in 10.0 mi SE 4.6 mph - N/A   Overcast
4:35 AM 59.0 °F 50.0 °F 72% 30.05 in 10.0 mi SSE 5.8 mph - N/A   Overcast
4:55 AM 59.0 °F 51.8 °F 77% 30.04 in 10.0 mi SE 3.5 mph - N/A Rain Light Rain
5:15 AM 57.2 °F 51.8 °F 82% 30.04 in 3.0 mi ESE 3.5 mph - N/A Rain Rain
5:35 AM 55.4 °F 53.6 °F 94% 30.04 in 5.0 mi SE 5.8 mph - N/A Rain Light Rain
5:55 AM 55.4 °F 53.6 °F 94% 30.04 in 4.0 mi SE 3.5 mph - N/A Rain Rain
6:15 AM 55.4 °F 53.6 °F 94% 30.03 in 4.0 mi Calm Calm - N/A Rain Rain
6:35 AM 55.4 °F 53.6 °F 94% 30.02 in 4.0 mi SE 5.8 mph - N/A Rain Light Rain
6:55 AM 55.4 °F 53.6 °F 94% 30.02 in 5.0 mi SE 4.6 mph - N/A Rain Light Rain
7:15 AM 55.4 °F 53.6 °F 94% 30.02 in 7.0 mi SSE 3.5 mph - N/A Rain Light Rain
7:35 AM 55.4 °F 53.6 °F 94% 30.03 in 10.0 mi SSE 4.6 mph - N/A   Overcast
7:55 AM 55.4 °F 53.6 °F 94% 30.04 in 7.0 mi SE 3.5 mph - N/A   Overcast
8:15 AM 55.4 °F 53.6 °F 94% 30.03 in 10.0 mi Calm Calm - N/A   Overcast
8:35 AM 57.2 °F 53.6 °F 88% 30.03 in 10.0 mi SE 4.6 mph - N/A   Overcast
9:15 AM 59.0 °F 53.6 °F 82% 30.02 in 10.0 mi SE 3.5 mph - N/A   Overcast
9:35 AM 59.0 °F 53.6 °F 82% 30.02 in 10.0 mi SSE 4.6 mph - N/A   Overcast
9:55 AM 59.0 °F 53.6 °F 82% 30.02 in 10.0 mi South 3.5 mph - N/A   Overcast
10:15 AM 60.8 °F 53.6 °F 77% 30.02 in 10.0 mi SSE 5.8 mph - N/A   Overcast
10:35 AM 60.8 °F 53.6 °F 77% 30.02 in 10.0 mi SSE 4.6 mph - N/A   Overcast
10:55 AM 60.8 °F 53.6 °F 77% 30.02 in 10.0 mi South 6.9 mph - N/A   Mostly Cloudy
11:15 AM 62.6 °F 53.6 °F 72% 30.02 in 10.0 mi SSE 9.2 mph - N/A   Mostly Cloudy
11:35 AM 62.6 °F 53.6 °F 72% 30.01 in 10.0 mi SSE 6.9 mph - N/A   Mostly Cloudy
11:55 AM 64.4 °F 53.6 °F 68% 30.01 in 10.0 mi SSW 8.1 mph - N/A   Scattered Clouds
12:15 PM 64.4 °F 53.6 °F 68% 30.01 in 10.0 mi South 9.2 mph - N/A   Scattered Clouds
12:35 PM 64.4 °F 53.6 °F 68% 30.01 in 10.0 mi South 5.8 mph - N/A   Mostly Cloudy
12:55 PM 64.4 °F 51.8 °F 64% 29.99 in 10.0 mi South 8.1 mph - N/A   Overcast
1:15 PM 64.4 °F 51.8 °F 64% 29.99 in 10.0 mi SSE 3.5 mph - N/A   Overcast
1:35 PM 68.0 °F 51.8 °F 56% 29.98 in 10.0 mi South 8.1 mph - N/A   Scattered Clouds
1:55 PM 66.2 °F 51.8 °F 60% 29.97 in 10.0 mi South 6.9 mph - N/A   Scattered Clouds
2:15 PM 66.2 °F 51.8 °F 60% 29.96 in 10.0 mi South 4.6 mph - N/A   Scattered Clouds
2:55 PM 68.0 °F 51.8 °F 56% 29.95 in 10.0 mi South 3.5 mph - N/A   Mostly Cloudy
3:15 PM 69.8 °F 51.8 °F 53% 29.94 in 10.0 mi SSE 9.2 mph - N/A   Mostly Cloudy
3:35 PM 68.0 °F 51.8 °F 56% 29.94 in 10.0 mi SSW 8.1 mph - N/A   Overcast
3:55 PM 68.0 °F 51.8 °F 56% 29.93 in 10.0 mi SSW 9.2 mph - N/A   Overcast
4:15 PM 68.0 °F 51.8 °F 56% 29.93 in 10.0 mi SSW 6.9 mph - N/A   Overcast
4:35 PM 68.0 °F 51.8 °F 56% 29.92 in 10.0 mi SSW 6.9 mph - N/A   Overcast
4:55 PM 68.0 °F 51.8 °F 56% 29.91 in 10.0 mi South 5.8 mph - N/A   Overcast
5:15 PM 68.0 °F 51.8 °F 56% 29.91 in 10.0 mi SSW 5.8 mph - N/A   Overcast
5:35 PM 68.0 °F 51.8 °F 56% 29.90 in 10.0 mi South 4.6 mph - N/A   Mostly Cloudy
5:55 PM 69.8 °F 51.8 °F 53% 29.90 in 10.0 mi Calm Calm - N/A   Scattered Clouds
6:15 PM 68.0 °F 51.8 °F 56% 29.90 in 10.0 mi SSE 3.5 mph - N/A   Mostly Cloudy
6:35 PM 68.0 °F 51.8 °F 56% 29.90 in 10.0 mi South 6.9 mph - N/A   Mostly Cloudy
6:55 PM 69.8 °F 51.8 °F 53% 29.90 in 10.0 mi SSW 9.2 mph 16.1 mph N/A   Scattered Clouds
7:15 PM 69.8 °F 51.8 °F 53% 29.90 in 10.0 mi South 9.2 mph 17.3 mph N/A   Clear
7:35 PM 68.0 °F 50.0 °F 52% 29.91 in 10.0 mi South 4.6 mph 16.1 mph N/A   Clear
7:55 PM 66.2 °F 50.0 °F 56% 29.91 in 10.0 mi South 8.1 mph - N/A   Scattered Clouds
8:35 PM 64.4 °F 51.8 °F 64% 29.91 in 10.0 mi South 4.6 mph - N/A   Scattered Clouds
8:55 PM 64.4 °F 50.0 °F 59% 29.91 in 10.0 mi South 5.8 mph - N/A   Scattered Clouds
9:15 PM 62.6 °F 50.0 °F 63% 29.93 in 10.0 mi SSW 3.5 mph - N/A   Scattered Clouds
9:35 PM 62.6 °F 50.0 °F 63% 29.93 in 10.0 mi South 3.5 mph - N/A   Overcast
9:55 PM 62.6 °F 50.0 °F 63% 29.93 in 10.0 mi South 3.5 mph - N/A   Scattered Clouds
10:15 PM 62.6 °F 50.0 °F 63% 29.94 in 10.0 mi Calm Calm - N/A   Mostly Cloudy
10:35 PM 62.6 °F 50.0 °F 63% 29.94 in 10.0 mi Calm Calm - N/A   Scattered Clouds
10:55 PM 62.6 °F 51.8 °F 68% 29.94 in 10.0 mi SSW 3.5 mph - N/A   Mostly Cloudy
11:15 PM 62.6 °F 51.8 °F 68% 29.94 in 10.0 mi Calm Calm - N/A   Overcast
11:35 PM 62.6 °F 51.8 °F 68% 29.94 in 10.0 mi SSW 3.5 mph - N/A   Overcast
11:55 PM 62.6 °F 51.8 °F 68% 29.94 in 10.0 mi Calm Calm - N/A   Overcast